This is the latest recevied weather packets stored in our database for station/object DG4MJS-10. If no packets are shown the sender has not sent any weather packets the latest 10 day(s).
| Time | Temp. | Humidity | Pressure | Rain* | Wind** | Luminosity | Snow |
|---|---|---|---|---|---|---|---|
| 1788351287 | 22.22° C | 49% | 1020.6 hPa | - | - | - | - |
| 1788350387 | 21.67° C | 53% | 1020.8 hPa | - | - | - | - |
| 1788348586 | 21.67° C | 56% | 1021 hPa | - | - | - | - |
| 1788347686 | 21.11° C | 58% | 1020.9 hPa | - | - | - | - |
| 1788346786 | 21.67° C | 57% | 1021.1 hPa | - | - | - | - |
| 1788345886 | 21.11° C | 59% | 1021.2 hPa | - | - | - | - |
| 1788344986 | 21.11° C | 59% | 1021.5 hPa | - | - | - | - |
| 1788344087 | 20.56° C | 59% | 1021.5 hPa | - | - | - | - |
| 1788343187 | 20.56° C | 59% | 1021.7 hPa | - | - | - | - |
| 1788341386 | 20° C | 61% | 1021.8 hPa | - | - | - | - |
| 1788340486 | 20° C | 62% | 1021.8 hPa | - | - | - | - |
| 1788339586 | 20° C | 62% | 1021.8 hPa | - | - | - | - |
| 1788338686 | 20° C | 63% | 1021.8 hPa | - | - | - | - |
| 1788337786 | 19.44° C | 63% | 1021.8 hPa | - | - | - | - |
| 1788336886 | 19.44° C | 64% | 1021.8 hPa | - | - | - | - |
| 1788335986 | 18.89° C | 65% | 1021.7 hPa | - | - | - | - |
| 1788335086 | 18.89° C | 65% | 1021.6 hPa | - | - | - | - |
| 1788334186 | 18.33° C | 67% | 1021.6 hPa | - | - | - | - |
| 1788333286 | 17.78° C | 67% | 1021.7 hPa | - | - | - | - |
| 1788332386 | 17.78° C | 67% | 1021.9 hPa | - | - | - | - |
| 1788330585 | 17.78° C | 67% | 1021.7 hPa | - | - | - | - |
| 1788329685 | 17.22° C | 66% | 1021.7 hPa | - | - | - | - |
| 1788328785 | 17.22° C | 65% | 1021.9 hPa | - | - | - | - |
| 1788327885 | 16.67° C | 65% | 1021.7 hPa | - | - | - | - |
| 1788326985 | 16.67° C | 63% | 1021.7 hPa | - | - | - | - |
* Rain since midnight (hover to see other rain measurements)
** Current wind speed in m/s (hover to see current wind gust speed)